Location: ?????????
(44.2517°N, 135.2292°E)
Time: 03:22:11
(UTC+00:00)

Cosmos 1605 Rocket - Pass Details

Date: 19 May 2025
Orbit: 944 x 1005 km, 82.9° (Epoch: 15 June)

Event Time Altitude Azimuth Distance (km) Brightness Sun altitude
Rises 14:42:09 0° 349° (N) 3,723 8.4 -25.8°
Reaches altitude 10° 14:44:43 10° 347° (NNW) 2,763 7.4 -25.8°
Maximum altitude 14:51:00 68° 266° (W) 1,051 4.0 -25.8°
Enters shadow 14:52:05 57° 215° (SW) 1,139 4.0 -25.8°
